Вернуться в каталог

THOR BURNER 2 R/B

АктивенSSO
NORAD 3522·ROCKET BODY·🇺🇸 United States

Запущен Oct 23, 1968 с Vandenberg Space Force Base

Loading…

Ближайшие Пролёты (ближайшие 24 часа)

TLE

СвежийSource: Space-Track

Эпоха: Sep 14, 2026, 21:16 UTC

1 03522U 68092B   26257.88664555  .00000106  00000-0  57731-4 0  9990
2 03522  98.8304  51.0383 0027759 264.9863  94.8151 14.31065206 13116

Отслеживайте THOR BURNER 2 R/B в реальном времени с AllMySat

Download on the App Store